Belleville, IL

1:33 AM CST on December 18, 2017 (GMT -0600)
Scott Air Force Base-Midamerica

Weather History for KBLV - July, 2013

Change the Weather History Date:

Monday, July 8, 2013

  Actual Average Record
Temperature  
Mean Temperature 80 °F -  
Max Temperature 90 °F 90 °F 100 °F (2001)
Min Temperature 69 °F 66 °F 50 °F (1983)
Cooling Degree Days 14    
Growing Degree Days 30 (Base 50)    
Moisture  
Dew Point 73 °F    
Average Humidity 77    
Maximum Humidity 100    
Minimum Humidity 58    
Precipitation  
Precipitation 0.00 in - - ()
Sea Level Pressure  
Sea Level Pressure 30.06 in    
Wind  
Wind Speed 5 mph (South)    
Max Wind Speed 14 mph    
Max Gust Speed -    
Visibility 10 miles    
Events      
Averages and records for this station are not official NWS values.
T = Trace of Precipitation, MM = Missing Value Source: NWS Daily Summary

Daily Weather History Graph

Daily Weather History Graph

Search for Another Location

Airport or City:

Trip Planner

Search our weather history database for the weather conditions in past years. The results will help you decide how hot, cold, wet, or windy it might be!

Date:

Astronomy

Jul. 08, 2013 Rise Set
Actual Time 5:42 AM CDT 8:25 PM CDT
Civil Twilight 5:11 AM CDT 8:57 PM CDT
Nautical Twilight 4:32 AM CDT 9:36 PM CDT
Astronomical Twilight 3:47 AM CDT 10:20 PM CDT
Moon 6:10 AM CDT (7/8) 8:29 PM CDT (7/8)
Length of Visible Light 15h 45m
Length of Day
14h 43m
New Moon, 0% of the Moon is Illuminated
Jul 8
New Moon
Jul 15
First Quarter
Jul 22
Full
Jul 29
Last Quarter
Aug 6
New

Hourly Weather History & Observations

Time (CDT) Temp. Heat Index Dew Point Humidity Pressure Visibility Wind Dir Wind Speed Gust Speed Precip Events Conditions
12:56 AM 73.4 °F - 71.6 °F 94% 30.06 in 10.0 mi SSW 1.2 mph - N/A   Clear
1:56 AM 73.4 °F - 71.6 °F 94% 30.06 in 10.0 mi SSE 2.3 mph - N/A   Clear
2:56 AM 71.6 °F - 71.6 °F 100% 30.05 in 10.0 mi South 4.6 mph - N/A   Clear
3:56 AM 73.4 °F - 71.6 °F 94% 30.04 in 10.0 mi South 4.6 mph - N/A   Clear
4:56 AM 71.6 °F - 71.6 °F 100% 30.06 in 10.0 mi Calm Calm - N/A   Clear
5:56 AM 69.8 °F - 69.8 °F 100% 30.07 in 10.0 mi South 5.8 mph - N/A   Clear
6:56 AM 71.6 °F - 71.6 °F 100% 30.07 in 10.0 mi SSE 4.6 mph - N/A   Clear
7:56 AM 77.0 °F - 71.6 °F 83% 30.08 in 10.0 mi SSW 5.8 mph - N/A   Clear
8:56 AM 78.8 °F - 73.4 °F 83% 30.09 in 10.0 mi SSW 8.1 mph - N/A   Clear
9:56 AM 82.4 °F 88.2 °F 73.4 °F 74% 30.11 in 10.0 mi SSW 5.8 mph - N/A   Scattered Clouds
10:56 AM 86.0 °F 93.4 °F 73.4 °F 66% 30.12 in 10.0 mi SSW 6.9 mph - N/A   Scattered Clouds
11:56 AM 87.8 °F 95.6 °F 73.4 °F 62% 30.10 in 10.0 mi South 9.2 mph - N/A   Scattered Clouds
12:58 PM 88.0 °F 97.5 °F 74.8 °F 65% 30.09 in 10.0 mi South 9.2 mph - N/A   Mostly Cloudy
1:58 PM 89.4 °F 99.4 °F 74.8 °F 62% 30.08 in 10.0 mi South 9.2 mph - N/A   Scattered Clouds
2:58 PM 90.0 °F 100.2 °F 75.0 °F 61% 30.06 in 10.0 mi South 10.4 mph - N/A   Clear
3:58 PM 90.1 °F 99.4 °F 73.9 °F 59% 30.05 in 10.0 mi South 13.8 mph - N/A   Clear
4:58 PM 89.2 °F 96.9 °F 72.5 °F 58% 30.04 in 10.0 mi South 11.5 mph - N/A   Clear
5:58 PM 88.5 °F 97.8 °F 74.5 °F 63% 30.03 in 10.0 mi South 9.2 mph - N/A   Clear
6:58 PM 86.7 °F 95.5 °F 74.5 °F 67% 30.02 in 10.0 mi South 8.1 mph - N/A   Clear
7:58 PM 84.6 °F 91.7 °F 73.9 °F 70% 30.02 in 10.0 mi South 6.9 mph - N/A   Clear
8:58 PM 82.9 °F 89.4 °F 73.8 °F 74% 30.03 in 10.0 mi South 3.5 mph - N/A   Mostly Cloudy
9:58 PM 81.3 °F 86.5 °F 73.6 °F 77% 30.04 in 10.0 mi South 4.6 mph - N/A   Overcast
10:58 PM 80.4 °F 84.5 °F 72.1 °F 76% 30.05 in 10.0 mi South 5.8 mph - N/A   Scattered Clouds
11:58 PM 80.2 °F 84.2 °F 72.0 °F 76% 30.05 in 10.0 mi SSW 3.5 mph - N/A   Mostly Cloudy